Regional Weather Roundup
Issued by NWS

Home | Current Version | Previous Version | Text Only | Print | Product List | Glossary On
Versions: 1 2 3 4 5 6 7 8 9 10 11 12 13 14 15 16 17 18 19 20 21 22 23 24 25 26 27 28 29 30 31 32 33 34 35 36 37 38 39 40 41 42 43 44 45 46 47 48 49 50
000
ASUS43 KMPX 161501
RWRMN
WEATHER ROUNDUP FOR MINNESOTA
NATIONAL WEATHER SERVICE TWIN CITIES/CHANHASSEN MN
900 AM CST TUE JAN 16 2018


NOTE: "FAIR" INDICATES FEW OR NO CLOUDS BELOW 12,000 FEET WITH NO
SIGNIFICANT WEATHER AND/OR OBSTRUCTIONS TO VISIBILITY. N/A MEANS
CURRENT SKY AND/OR WEATHER CONDITIONS ARE NOT AVAILABLE.

MNZ060>063-068>070-161600-
   Twin Cities Metro

CITY           SKY/WX    TMP DP  RH WIND       PRES   REMARKS
TWIN CITIES    MOCLDY    -1  -4  87 NW9       30.69R WCI -16
ST PAUL        CLOUDY     1  -4  79 NW12      30.70R WCI -16
CRYSTAL        FAIR      -3  -9  75 NW9       30.68S WCI -19
BLAINE         CLEAR      0  -6  78 NW7       30.67R WCI -13
LAKEVILLE      CLOUDY     0  -2  92 NW10      30.67S FOG     WCI -17
EDEN PRAIRIE   CLOUDY     0  -5  79 NW12      30.68R WCI -17
SOUTH ST PAUL  CLOUDY     2  -3  78 NW8       30.68S HAZE    WCI -11
LAKE ELMO      CLOUDY     3   0  85 NW8       30.67S WCI -10
$$
MNZ001>005-007-008-013>017-022>024-027-028-161600-
   Northwest Minnesota

CITY           SKY/WX    TMP DP  RH WIND       PRES   REMARKS
BEMIDJI        FAIR     -15 -20  81 W5        30.64F WCI -28
HALLOCK        FAIR     -11 -18  70 S12       30.66F WCI -31
ROSEAU         FAIR     -15 -20  76 SW6       30.64F WCI -29
WARROAD        FAIR     -17 -24  70 S5        30.63F WCI -29
CROOKSTON      FAIR     -17 -20  83 S7        30.73F WCI -33
FOSSTON        FAIR     -17 -22  76 S5        30.68S WCI -29
DETROIT LAKES  FAIR     -15 -18  84 CALM      30.68S FOG
MOORHEAD       FAIR     -15 -22  70 CALM      30.76S
PARK RAPIDS    FAIR     -18 -23  77 NW5       30.64S WCI -31
MAHNOMEN       CLOUDY   -17 -21  79 SW3       30.69S
$$
MNZ006-009>011-018-025>026-161600-
   North Central Minnesota

CITY           SKY/WX    TMP DP  RH WIND       PRES   REMARKS
BAUDETTE       FAIR     -17 -22  78 S3        30.61F
FLAG ISLAND    FAIR     -13 -18  77 S5        30.60F WCI -25
INTL FALLS     FAIR     -10 -15  78 W3        30.62F
WASKISH        FAIR     -17 -20  83 SW6       30.64F WCI -31
BIG FORK       FAIR      -8 -11  84 CALM      30.62S
LONGVILLE      CLOUDY   -11 -15  84 W3        30.64S
GRAND RAPIDS   LGT SNOW  -5  -9  83 NW9       30.64S FOG     WCI -22
CRANE LAKE     CLOUDY    -4  -8  84 W5        30.64F WCI -15
ORR            CLOUDY    -6  -9  84 NW3       30.58S
COOK           CLOUDY    -4  -8  84 W7        30.61S WCI -18
WALKER         FAIR     -14 -19  80 CALM      30.65S
$$
MNZ012-019>021-037-161600-
   Northeast Minnesota

CITY           SKY/WX    TMP DP  RH WIND       PRES   REMARKS
DULUTH         FAIR      -4  -7  87 NW13      30.56S WCI -23
ELY            CLOUDY    -2  -6  84 CALM      30.57S
HIBBING        CLOUDY    -5  -9  83 NW8       30.60S WCI -20
EVELETH        CLOUDY    -3  -8  77 W3        30.60S
DULUTH HARBOR  FAIR       0  -6  78 W6        30.66S WCI -12
TWO HARBORS    FAIR       5  -2  72 CALM      30.56S
SILVER BAY     FAIR       0  -4  85 N3        30.55S
GRAND MARAIS     N/A      9  -1  64 NW10      30.58R WCI  -5
G MARAIS ARPRT CLOUDY    -2  -8  78 NW5       30.48S WCI -12
$$
MNZ029>031-032-039>041-046>048-054>057-064-161600-
   West Central Minnesota

CITY           SKY/WX    TMP DP  RH WIND       PRES   REMARKS
FERGUS FALLS   FAIR     -15 -20  76 NW9       30.77F WCI -33
WHEATON        CLOUDY   -11 -18  70 NW7       30.77F WCI -26
MORRIS         CLOUDY   -11 -17  77 NW10      30.72S WCI -30
ALEXANDRIA     FAIR     -12 -16  82 NW8       30.66F WCI -29
ELBOW LAKE     FAIR     -13 -17  82 NW6       30.72S WCI -27
WADENA         FAIR     -17 -20  83 W5        30.66S WCI -29
GLENWOOD       FAIR     -11 -17  77 W9        30.68R WCI -29
APPLETON       CLOUDY    -9 -17  70 NW8       30.76S WCI -26
BENSON         CLOUDY   -11 -17  77 N9        30.74S WCI -29
ORTONVILLE     CLOUDY   -11 -18  70 NW9       30.75S WCI -29
MADISON        CLOUDY    -8 -15  71 NW8       30.76S WCI -23
WILLMAR        FAIR      -9 -15  77 NW10      30.73S WCI -28
$$
MNZ033>034-036-042>043-049>051-058-059-161600-
   Central Minnesota

CITY           SKY/WX    TMP DP  RH WIND       PRES   REMARKS
ST CLOUD       FAIR      -7 -10  87 NW6       30.68S WCI -20
SAUK CENTRE      N/A    -11 -16  78 NW6       30.67F WCI -24
PAYNESVILLE    FAIR     -10 -14  81 NW6       30.69F WCI -23
AITKIN         FAIR      -8 -11  84 NW5       30.62F WCI -19
PINE RIVER     FAIR      -9 -15  77 NW6       30.66S WCI -23
BRAINERD       FAIR      -7 -12  79 W5        30.65S WCI -18
STAPLES        FAIR     -15 -18  84 NW7       30.66S WCI -31
LONG PRAIRIE   FAIR      -9 -15  77 W5        30.66S WCI -21
LITTLE FALLS   CLOUDY    -8 -15  71 NW5       30.68S WCI -19
LITCHFIELD     FAIR      -8 -11  84 W8        30.70R WCI -23
BUFFALO        CLOUDY    -3  -8  79 NW8       30.71R WCI -18
MAPLE LAKE     FAIR      -5  -9  85 MISG      30.70R
HUTCHINSON     FAIR      -7 -12  78 W9        30.71S WCI -24
$$
MNZ037-044-045-052-053-161600-
   East Central Minnesota

CITY           SKY/WX    TMP DP  RH WIND       PRES   REMARKS
PRINCETON      FAIR      -6  -9  84 W3        30.67S
MORA           FAIR      -2  -6  84 CALM      30.67S
CAMBRIDGE      FLURRIES  -4 -11  71 W3        30.68R
RUSH CITY      FAIR      -4  -8  84 W3        30.67R
MOOSE LAKE     CLOUDY    -2  -6  84 CALM      30.61F
HINCKLEY       FAIR      -4  -8  84 CALM      30.65S
CLOQUET        FAIR      -2  -8  78 NW10      30.58S WCI -19
MCGREGOR       FAIR      -4  -6  92 NW9       30.63S WCI -20
$$
MNZ071>073-080-081-089-090-097-098-161600-
   Southwest Minnesota

CITY           SKY/WX    TMP DP  RH WIND       PRES   REMARKS
MONTEVIDEO     CLOUDY    -8 -13  77 N10       30.75S WCI -26
GRANITE FALLS  CLOUDY    -6 -11  77 NW13      30.76F WCI -25
CANBY          CLOUDY    -8 -13  78 NW6       30.75F WCI -21
MARSHALL       CLOUDY    -8 -13  78 NW14      30.73S WCI -29
REDWOOD FALLS  CLOUDY    -7 -12  79 NW12      30.73F WCI -26
OLIVIA         CLOUDY    -6  -9  84 NW12      30.72S WCI -24
PIPESTONE      CLOUDY    -6  -9  84 N7        30.66S FOG     WCI -20
WINDOM         CLOUDY    -8 -20  54 NW14      30.68R WCI -28
JACKSON        CLOUDY    -8 -13  77 NW12G17   30.67S WCI -27
SLAYTON        CLOUDY    -8 -13  82 NW12      30.67R WCI -28
$$
MNZ065>067-074>077-082>085-091>093-161600-
   South Central Minnesota

CITY           SKY/WX    TMP DP  RH WIND       PRES   REMARKS
MANKATO        LGT SNOW  -4  -8  83 NW13      30.70R FOG     WCI -23
NEW ULM        FLURRIES  -8 -13  77 NW13      30.71F WCI -28
ST JAMES       LGT SNOW  -8 -11  84 NW14      30.72S WCI -28
FAIRMONT       FLURRIES  -6 -11  79 NW17      30.69S WCI -28
FARIBAULT      CLOUDY     0  -6  78 W6        30.66S WCI -12
OWATONNA       CLOUDY    -2  -8  78 NW14      30.65R WCI -21
WASECA         CLOUDY    -2  -8  78 NW12      30.68S HAZE    WCI -20
ALBERT LEA     CLOUDY    -4  -9  77 NW8       30.64R HAZE    WCI -19
$$
MNZ078>079-086>088-094>096-161600-
   Southeast Minnesota

CITY           SKY/WX    TMP DP  RH WIND       PRES   REMARKS
ROCHESTER      CLOUDY     2   0  91 NW15      30.59R WCI -17
RED WING       LGT SNOW   5  -2  72 W6        30.65S VSB 1   WCI  -6
STANTON        CLOUDY     3  -1  83 NW12      30.65S FOG     WCI -13
DODGE CENTER   CLOUDY     1  -2  85 NW12      30.60S FOG     WCI -15
WINONA         CLOUDY     5   0  78 NW6         N/A  WCI  -6
PRESTON        CLOUDY     2  -2  84 NW16      30.58R FOG     WCI -17
$$
ABBREVIATIONS USED IN REMARKS
   TC - TEMPERATURES IN CELSIUS
  WCI - WIND CHILL INDEX
   HX - HEAT INDEX
  VSB - VISIBILITY
$$




USA.gov is the U.S. government's official web portal to all federal, state and local government web resources and services.